OBJECT E, 61242

Orbit data source: Space-Track

You're viewing an Uncataloged Satellite

Recently launched and/or uncataloged satellites may have evolving metadata. Metadata may include but not limited to: Owner, Maufacturer, Bus, Motor, and Mission.

OBJECT E, 61242 is a satellite owned by Yunyao yuhang (CN) in SSO that was launched on Tue, 24 Sep 2024 UTC via a LIJIAN-1 launch vehicle from the Jiuquan Satellite Launch Center, China (JSC). Unknown objects in Earth's orbit typically refer to objects detected orbiting the Earth but have not yet been identified or cataloged. These objects could be anything from previously untracked satellites, spent rocket stages, debris from satellite collisions, or even natural meteoroids temporarily captured by Earth's gravity.

Loading next visibility...
OBJECT E details
Identifier
61242, 2024-174E
Orbit
SSO
Last TLE update9 hours ago
Origin
Flag of CNYunyao yuhang (CN / PRC)
ManufacturerYunyao yuhang
MissionOperational spacecraft
Bus & MotorYY-1, Unknown motor
Mass~50 kg wet, ~50 kg dry
Launch date (UTC)
2024-09-24 (3 months ago)
Launch vehicle
LIJIAN-1
Launch site
Jiuquan Satellite Launch Center, China (JSC)
Object typeUnknown
Shape & HBRUnknown
Radar Cross SectionLarge (>1 m²)

Expand to show TLE details & history

TLE from 9 hours ago
0 OBJECT E
1 61242U 24174E   24356.14560263  .00008635  00000-0  42282-3 0  9993
2 61242  97.4552   0.0442 0015691 348.1106  11.9756 15.18304435 13179
Epoch: 2024-12-21T03:29Z
Definitive object data (Epoch: 2024-12-21T03:29:40.067Z)
Latitude0.00006°
Longitude-142.57371°
Altitude503.475 km
Speed7.618 km/s
True Right ascension00h 00m 10s
True Declination0° 00' 00"
Sunlit
Object was in daylight at TLE epoch
Visualization TLE readout
Latitude-72.56267°
Longitude-117.72034°
Altitude532.433 km
Speed7.598 km/s
Apparent Right ascension00h 16m 09s
Apparent Declination-57° 29' 09"
Sunlit
Object is in daylight
Visualization observer readout
Local Sidereal Time11:41:25
Azimuth194.859° SSW
Elevation-71.555°
Doppler factor1
Orbital elements
Apogee altitude518.74 km
Perigee altitude497.13 km
Semi-major axis6,886.072 km
Eccentricity0.0015691
Inclination97.4552°
RAAN0.0442°
Arg. of periapsis348.1106°
True anomaly12.01298°
Mean anomaly11.9756°
Eccentric anomaly11.99428°
Mean motion3.79827 °/min
BSTAR0.00042282
Orbital period94.78 mins
Loading maneuver chart data...
Loading historical data...
Loading historical data...
Loading historical data...
Loading historical data...
Loading historical data...
Loading historical data...
Loading historical data...

OBJECT E Visibility forecast

Observer location: undefined°, undefined

Span
Click to sort rows by Start time (UTC) header in descending order
Start Az.
Max El. time (UTC)
Max El. Az.
Max El.
End time (UTC)
End Az.
6 mins2024-12-21 13:32:35.067Z4.278° NNE2024-12-21 13:35:35.067Z299.985° NW41.883°2024-12-21 13:38:35.067Z205.186° SW
5 mins2024-12-22 00:12:35.067Z132.556° SE2024-12-22 00:14:35.067Z54.516° ENE35.148°2024-12-22 00:17:35.067Z1.12° NNE
|